This is the latest recevied weather packets stored in our database for station/object WB9TLH-12. If no packets are shown the sender has not sent any weather packets the latest 10 day(s).
| Time | Temp. | Humidity | Pressure | Rain* | Wind** | Luminosity | Snow |
|---|---|---|---|---|---|---|---|
| 1778425318 | 18.89° C | 47% | 1014.5 hPa | 0 mm | - | - | - |
| 1778425018 | 18.89° C | 47% | 1014.6 hPa | 0 mm | - | - | - |
| 1778424717 | 18.89° C | 47% | 1014.5 hPa | 0 mm | - | - | - |
| 1778424417 | 18.33° C | 48% | 1014.4 hPa | 0 mm | - | - | - |
| 1778424117 | 18.33° C | 49% | 1014.2 hPa | 0 mm | - | - | - |
| 1778423816 | 18.33° C | 49% | 1014.3 hPa | 0 mm | - | - | - |
| 1778423516 | 18.33° C | 52% | 1014.4 hPa | 0 mm | - | - | - |
| 1778423216 | 17.78° C | 52% | 1014.3 hPa | 0 mm | - | - | - |
| 1778422916 | 17.78° C | 52% | 1014.3 hPa | 0 mm | - | - | - |
| 1778422615 | 17.22° C | 57% | 1014.2 hPa | 0 mm | - | - | - |
| 1778422315 | 17.22° C | 56% | 1014.2 hPa | 0 mm | - | - | - |
| 1778422015 | 17.22° C | 59% | 1014.3 hPa | 0 mm | - | - | - |
| 1778421714 | 16.67° C | 59% | 1014.3 hPa | 0 mm | - | - | - |
| 1778421414 | 16.67° C | 61% | 1014.1 hPa | 0 mm | - | - | - |
| 1778421114 | 16.67° C | 63% | 1014.2 hPa | 0 mm | - | - | - |
| 1778420814 | 16.67° C | 65% | 1014.2 hPa | 0 mm | - | - | - |
| 1778420513 | 16.11° C | 67% | 1014.1 hPa | 0 mm | - | - | - |
| 1778420213 | 15.56° C | 68% | 1014 hPa | 0 mm | - | - | - |
| 1778419913 | 15.56° C | 70% | 1014 hPa | 0 mm | - | - | - |
| 1778419612 | 15° C | 72% | 1014 hPa | 0 mm | - | - | - |
| 1778419312 | 15° C | 72% | 1013.9 hPa | 0 mm | - | - | - |
| 1778419012 | 14.44° C | 71% | 1013.8 hPa | 0 mm | - | - | - |
| 1778418712 | 14.44° C | 71% | 1013.7 hPa | 0 mm | - | - | - |
| 1778418411 | 14.44° C | 71% | 1013.7 hPa | 0 mm | - | - | - |
| 1778418111 | 14.44° C | 70% | 1013.7 hPa | 0 mm | - | - | - |
* Rain latest hour (hover to see other rain measurements)
** Current wind speed in m/s (hover to see current wind gust speed)